Home   Weather   Chandigarh   Past weeks

Flag for India Past Weather in Chandigarh, Chandigarh, India — Yesterday and Last 2 Weeks

75 °F


Feels Like: 77 °F
Forecast: 60 / 88 °F
Wind: 2 mph from North

Location: Amritsar Airport

Current Time: Oct 26, 2016 at 7:10:21 PM

Latest Report: Oct 26, 2016 at 6:30 PM

Visibility: 2 mi

Pressure: 29.92 "Hg

Humidity: 65%

Dew Point: 63 °F

Location of ChandigarhLocation

Past Weather in Chandigarh — Graph


Chandigarh Temperature Yesterday

Maximum temperature yesterday: 88 °F (at 1:30 PM)
Minimum temperature yesterday: 63 °F (at 5:00 AM)
Average temperature yesterday: 73 °F

High & Low Weather Summary for the Past Weeks

High93 °F (Oct 12, 2:30 PM)100% (Oct 11, 9:30 PM)29.95 "Hg (Oct 11, 9:30 PM)
Low61 °F (Oct 22, 6:00 AM)23% (Oct 18, 3:30 PM)29.68 "Hg (Oct 12, 3:30 PM)
Average76 °F73%29.82 "Hg
* Reported Oct 11 5:30 PM — Oct 26 6:00 PM, Chandigarh, Weather by CustomWeather, © 2016

Note: Actual official high and low records may vary slightly from our data, if they occured in-between our weather recording intervals... More about our weather records


Chandigarh Weather History for the Previous 24 Hours

Scroll right to see more
Time TempWeatherWind HumidityBarometerVisibility
6:00 PM
Wed, Oct 26
79 °FHaze.No wind58%29.89 "Hg2 mi
5:30 PM81 °FClear.No wind51%29.89 "Hg2 mi
5:00 PM82 °FClear.2 mph48%29.89 "Hg2 mi
4:30 PM84 °FClear.5 mph43%29.89 "Hg2 mi
4:00 PM86 °FClear.7 mph38%29.89 "Hg2 mi
3:30 PM86 °FClear.7 mph38%29.89 "Hg2 mi
3:00 PM88 °FClear.8 mph35%29.89 "Hg2 mi
2:30 PM86 °FClear.6 mph40%29.89 "Hg2 mi
2:00 PM86 °FClear.9 mph38%29.92 "Hg2 mi
1:30 PM86 °FClear.5 mph40%29.92 "Hg2 mi
1:00 PM86 °FClear.5 mph43%29.92 "Hg2 mi
12:30 PM84 °FHaze.3 mph43%29.92 "Hg2 mi
12:00 PM84 °FHaze.6 mph43%29.95 "Hg2 mi
9:30 AM70 °FFog.No wind100%29.95 "Hg1 mi
9:00 AM66 °FFog.No wind100%29.92 "Hg1 mi
8:30 AM64 °FFog.No wind100%29.92 "Hg1 mi
8:00 AM63 °FFog.No wind100%29.89 "Hg1 mi
7:30 AM61 °FFog.No wind100%29.89 "Hg1 mi
7:00 AM61 °FFog.No wind100%29.89 "Hg1 mi
6:30 AM61 °FFog.No wind100%29.86 "Hg1 mi
6:00 AM61 °FFog.No wind100%29.86 "Hg1 mi
5:30 AM63 °FFog.No wind100%29.86 "Hg1 mi
5:00 AM63 °FFog.No wind100%29.83 "Hg1 mi
4:30 AM63 °FFog.No wind100%29.83 "Hg1 mi
3:30 AM64 °FFog.No wind100%29.83 "Hg1 mi
3:00 AM64 °FFog.No wind100%29.83 "Hg1 mi
2:30 AM64 °FFog.No wind100%29.83 "Hg1 mi
2:00 AM64 °FFog.No wind100%29.83 "Hg1 mi
1:30 AM66 °FFog.No wind100%29.83 "Hg1 mi
1:00 AM66 °FFog.No wind100%29.83 "Hg1 mi
12:30 AM64 °FFog.No wind100%29.83 "Hg1 mi
12:00 AM66 °FFog.No wind100%29.83 "Hg1 mi
11:30 PM
Tue, Oct 25
66 °FFog.No wind94%29.86 "Hg1 mi
11:00 PM68 °FFog.No wind88%29.86 "Hg2 mi
10:30 PM68 °FFog.No wind94%29.83 "Hg2 mi
10:00 PM68 °FFog.No wind94%29.83 "Hg2 mi
9:30 PM68 °FFog.No wind83%29.83 "Hg2 mi
9:00 PM68 °FFog.No wind83%29.83 "Hg2 mi
8:30 PM70 °FFog.No wind78%29.83 "Hg2 mi
8:00 PM70 °FFog.No wind78%29.83 "Hg2 mi
7:30 PM72 °FHaze.No wind69%29.80 "Hg2 mi
7:00 PM73 °FHaze.No wind65%29.80 "Hg2 mi
Weather by CustomWeather, © 2016

See weather overviewHow to use our weather pages